Location: Burtsch�tz
(51.0528°N, 12.1764°E)
Time: 00:56:59
(UTC+00:00)

SeaSat 1 - Pass Details

Date: 29 October 2020
Orbit: 744 x 747 km, 108.0° (Epoch: 23 November)

Event Time Altitude Azimuth Distance (km) Brightness Sun altitude
Exits shadow 19:40:26 26° 270° (W) 1,462 4.4 -36.1°
Drops below altitude 10° 19:43:42 10° 310° (NW) 2,274 5.7 -36.5°
Sets 19:46:19 0° 322° (NW) 3,203 6.5 -36.9°
